Location: Blackie
(50.6050°N, 113.6230°W)
Time: 08:33:08
(UTC+00:00)

N. Korean satellite - Pass Details

Date: 04 December 2021
Orbit: 446 x 491 km, 97.3° (Epoch: 18 January)

Event Time Altitude Azimuth Distance (km) Brightness Sun altitude
Rises 12:33:47 0° 18° (NNE) 2,473 10.3 -25.0°
Reaches altitude 10° 12:35:55 10° 26° (NNE) 1,591 9.4 -24.7°
Maximum altitude 12:39:10 41° 99° (E) 663 7.7 -24.2°
Drops below altitude 10° 12:42:22 10° 171° (S) 1,571 9.3 -23.7°
Sets 12:44:27 0° 179° (S) 2,438 10.2 -23.3°
